Home   Weather   Taipei   Past weeks

Flag for Taiwan Past Weather in Taipei, Taiwan — Yesterday and Last 2 Weeks

Now
77 °F

Passing clouds.


Feels Like: 79 °F
Forecast: 66 / 84 °F
Wind: 2 mph from North

Location: Sungshan / Taipei

Current Time: Apr 30, 2017 at 9:32:52 am

Latest Report: Apr 30, 2017 at 8:30 am


Visibility: N/A

Pressure: 29.95 "Hg

Humidity: 54%

Dew Point: 59 °F

Location of TaipeiLocation

Past Weather in Taipei — Graph

°F

Taipei Temperature Yesterday

Maximum temperature yesterday: 81 °F (at 11:00 am)
Minimum temperature yesterday: 55 °F (at 5:00 am)
Average temperature yesterday: 71 °F

High & Low Weather Summary for the Past Weeks

 TemperatureHumidityPressure
High91 °F (Apr 16, 1:00 pm)94% (Apr 19, 7:30 am)30.04 "Hg (Apr 19, 7:30 am)
Low55 °F (Apr 29, 5:00 am)34% (Apr 29, 1:00 pm)29.68 "Hg (Apr 17, 3:00 pm)
Average75 °F72%29.88 "Hg
* Reported Apr 15 8:00 am — Apr 30 8:00 am, Taipei, Weather by CustomWeather, © 2017

Note: Actual official high and low records may vary slightly from our data, if they occured in-between our weather recording intervals... More about our weather records

Advertising

Taipei Weather History for the Previous 24 Hours

Scroll right to see more
 ConditionsComfort  
Time TempWeatherWind HumidityBarometerVisibility
8:00 am
Sun, Apr 30
75 °FPassing clouds.2 mph57%29.95 "HgN/A
7:30 am73 °FPassing clouds.1 mph61%29.95 "HgN/A
7:00 am72 °FSunny.1 mph65%29.95 "Hg10 mi
6:30 am68 °FSunny.1 mph73%29.92 "Hg10 mi
6:00 am64 °FPassing clouds.1 mph78%29.92 "HgN/A
5:00 am64 °FPassing clouds.2 mph78%29.92 "HgN/A
4:00 am66 °FPassing clouds.3 mph73%29.89 "HgN/A
3:00 am64 °FPassing clouds.2 mph78%29.89 "HgN/A
2:00 am66 °FPassing clouds.1 mph73%29.89 "HgN/A
1:00 am66 °FPassing clouds.2 mph68%29.92 "HgN/A
12:00 am68 °FPassing clouds.2 mph64%29.92 "HgN/A
11:30 pm
Sat, Apr 29
66 °FPassing clouds.3 mph68%29.92 "HgN/A
11:00 pm68 °FPassing clouds.3 mph64%29.92 "HgN/A
10:30 pm66 °FPassing clouds.3 mph68%29.95 "HgN/A
10:00 pm66 °FPassing clouds.7 mph64%29.95 "HgN/A
8:30 pm66 °FClear.8 mph60%29.92 "Hg10 mi
8:00 pm70 °FPassing clouds.9 mph53%29.92 "HgN/A
7:30 pm70 °FPassing clouds.8 mph53%29.92 "HgN/A
7:00 pm72 °FPassing clouds.10 mph50%29.92 "HgN/A
6:30 pm73 °FPassing clouds.10 mph44%29.89 "HgN/A
6:00 pm73 °FPassing clouds.10 mph44%29.89 "HgN/A
5:30 pm75 °FPassing clouds.12 mph41%29.89 "HgN/A
5:00 pm77 °FPassing clouds.10 mph39%29.89 "HgN/A
4:30 pm77 °FPassing clouds.12 mph42%29.89 "HgN/A
3:30 pm79 °FPassing clouds.13 mph39%29.89 "HgN/A
3:00 pm79 °FPassing clouds.14 mph42%29.89 "HgN/A
2:30 pm81 °FPassing clouds.12 mph39%29.89 "HgN/A
2:00 pm81 °FPassing clouds.12 mph34%29.89 "HgN/A
1:30 pm81 °FPassing clouds.12 mph37%29.92 "HgN/A
1:00 pm81 °FPassing clouds.13 mph34%29.92 "HgN/A
12:30 pm81 °FPassing clouds.10 mph37%29.92 "HgN/A
12:00 pm81 °FPassing clouds.10 mph37%29.92 "HgN/A
11:30 am81 °FPassing clouds.8 mph37%29.95 "HgN/A
11:00 am81 °FPassing clouds.8 mph39%29.95 "HgN/A
10:30 am79 °FPassing clouds.12 mph37%29.95 "HgN/A
10:00 am79 °FPassing clouds.10 mph39%29.98 "HgN/A
9:30 am77 °FPassing clouds.12 mph42%29.98 "HgN/A
9:00 am75 °FPassing clouds.9 mph50%29.98 "HgN/A
Weather by CustomWeather, © 2017

See weather overviewHow to use our weather pages